Change the Weather History Date:

Tuesday, December 24, 2013

  Actual Average Record
Temperature  
Mean Temperature 22 °F -  
Max Temperature 36 °F 28 °F 55 °F (1960)
Min Temperature 8 °F 6 °F -28 °F (1983)
Degree Days  
Heating Degree Days 43    
Moisture  
Dew Point 15 °F    
Average Humidity 78    
Maximum Humidity 90    
Minimum Humidity 56    
Precipitation  
Precipitation 0.00 in - - ()
Sea Level Pressure  
Sea Level Pressure 30.08 in    
Wind  
Wind Speed 17 mph (SW)    
Max Wind Speed 28 mph    
Max Gust Speed 36 mph    
Visibility 9 miles    
Events Snow    
Averages and records for this station are not official NWS values.
T = Trace of Precipitation, MM = Missing Value Source: NWS Daily Summary

Daily Weather History Graph

Daily Weather History Graph

Search for Another Location

Airport or City:

Trip Planner

Search our weather history database for the weather conditions in past years. The results will help you decide how hot, cold, wet, or windy it might be!

Date:

Astronomy

Dec. 24, 2013 Rise Set
Actual Time 8:02 AM CST 5:06 PM CST
Civil Twilight 7:30 AM CST 5:38 PM CST
Nautical Twilight 6:54 AM CST 6:14 PM CST
Astronomical Twilight 6:20 AM CST 6:48 PM CST
Moon No Moon Rise 11:49 AM CST (12/24)
Length of Visible Light 10h 08m
Length of Day
9h 04m
Waning Gibbous, 58% of the Moon is Illuminated
Dec 24
Waning Gibbous
Dec 25
Last Quarter
Jan 1
New
Jan 7
First Quarter
Jan 15
Full

Hourly Weather History & Observations

Time (CST) Temp. Windchill Dew Point Humidity Pressure Visibility Wind Dir Wind Speed Gust Speed Precip Events Conditions
12:15 AM 9.5 °F -6.6 °F -1.3 °F 62% 30.28 in 10.0 mi SSE 13.8 mph - N/A   Clear
12:35 AM 9.1 °F -7.0 °F -1.3 °F 63% 30.26 in 10.0 mi SSE 13.8 mph - N/A   Clear
12:55 AM 9.0 °F -8.5 °F -1.5 °F 63% 30.26 in 10.0 mi SSE 16.1 mph - N/A   Clear
1:15 AM 8.6 °F -9.5 °F -1.5 °F 64% 30.24 in 10.0 mi SSE 17.3 mph - N/A   Clear
1:35 AM 8.6 °F -9.5 °F -0.8 °F 66% 30.22 in 10.0 mi SSE 17.3 mph - N/A   Clear
1:55 AM 9.0 °F -9.0 °F -0.0 °F 67% 30.21 in 10.0 mi SSE 17.3 mph 20.7 mph N/A   Clear
2:15 AM 9.1 °F -9.3 °F 0.5 °F 68% 30.20 in 10.0 mi SSE 18.4 mph - N/A   Clear
2:35 AM 9.5 °F -8.3 °F 1.4 °F 70% 30.18 in 10.0 mi SSE 17.3 mph 25.3 mph N/A   Scattered Clouds
2:55 AM 10.8 °F -7.2 °F 3.0 °F 71% 30.17 in 10.0 mi SSE 18.4 mph 23.0 mph N/A   Mostly Cloudy
3:15 AM 12.0 °F -5.6 °F 4.6 °F 72% 30.15 in 10.0 mi South 18.4 mph 25.3 mph N/A   Overcast
3:35 AM 12.2 °F -5.8 °F 5.0 °F 73% 30.15 in 10.0 mi South 19.6 mph 25.3 mph N/A   Overcast
3:55 AM 12.7 °F -4.1 °F 5.9 °F 74% 30.14 in 10.0 mi South 17.3 mph 24.2 mph N/A   Overcast
4:15 AM 13.8 °F -4.9 °F 6.8 °F 74% 30.12 in 10.0 mi South 23.0 mph 29.9 mph N/A   Overcast
4:35 AM 14.2 °F -4.1 °F 7.7 °F 75% 30.10 in 10.0 mi South 21.9 mph 27.6 mph N/A   Overcast
4:55 AM 14.0 °F -3.9 °F 8.4 °F 78% 30.09 in 10.0 mi South 20.7 mph 28.8 mph N/A   Overcast
5:15 AM 14.7 °F -2.9 °F 9.5 °F 80% 30.08 in 10.0 mi South 20.7 mph 27.6 mph N/A   Overcast
5:35 AM 14.9 °F -3.1 °F 10.4 °F 82% 30.07 in 10.0 mi South 21.9 mph 31.1 mph N/A   Overcast
5:55 AM 14.9 °F -3.9 °F 10.8 °F 84% 30.06 in 10.0 mi South 24.2 mph 31.1 mph N/A   Overcast
6:15 AM 15.3 °F -2.6 °F 11.1 °F 84% 30.05 in 10.0 mi South 21.9 mph 29.9 mph N/A   Overcast
6:35 AM 15.6 °F -1.3 °F 11.7 °F 84% 30.04 in 10.0 mi South 19.6 mph 27.6 mph N/A   Overcast
6:55 AM 16.2 °F -1.8 °F 12.2 °F 84% 30.03 in 10.0 mi South 23.0 mph 27.6 mph N/A   Overcast
7:15 AM 16.7 °F -0.3 °F 13.1 °F 86% 30.02 in 10.0 mi South 20.7 mph 27.6 mph N/A   Overcast
7:35 AM 17.6 °F 0.5 °F 13.6 °F 84% 30.01 in 10.0 mi South 21.9 mph 27.6 mph N/A   Overcast
7:55 AM 18.0 °F 0.9 °F 14.0 °F 84% 30.00 in 10.0 mi South 21.9 mph 27.6 mph N/A   Overcast
8:15 AM 18.5 °F 1.3 °F 14.4 °F 84% 29.99 in 10.0 mi South 23.0 mph 31.1 mph N/A   Overcast
8:35 AM 19.2 °F 2.6 °F 14.7 °F 83% 30.00 in 10.0 mi South 21.9 mph 26.5 mph N/A   Overcast
8:55 AM 19.6 °F 4.3 °F 14.9 °F 82% 29.99 in 10.0 mi South 18.4 mph 31.1 mph N/A   Overcast
9:15 AM 20.3 °F 4.0 °F 15.6 °F 82% 29.99 in 7.0 mi South 21.9 mph 31.1 mph N/A Snow Light Snow
9:35 AM 21.0 °F 4.6 °F 16.7 °F 83% 29.98 in 3.0 mi South 23.0 mph - N/A Snow Light Snow
9:55 AM 21.2 °F 5.6 °F 16.9 °F 83% 29.98 in 7.0 mi South 20.7 mph 27.6 mph N/A   Overcast
10:15 AM 21.9 °F 6.2 °F 17.1 °F 82% 29.97 in 10.0 mi South 21.9 mph 26.5 mph N/A   Overcast
10:35 AM 22.5 °F 6.9 °F 17.4 °F 81% 29.96 in 10.0 mi South 21.9 mph 28.8 mph N/A   Overcast
10:55 AM 23.0 °F 6.9 °F 17.4 °F 79% 29.96 in 10.0 mi South 24.2 mph 31.1 mph N/A   Overcast
11:15 AM 24.8 °F 10.7 °F 18.1 °F 76% 29.96 in 10.0 mi South 19.6 mph - N/A   Mostly Cloudy
11:35 AM 26.4 °F 12.8 °F 18.9 °F 73% 29.96 in 10.0 mi South 19.6 mph 27.6 mph N/A   Scattered Clouds
11:55 AM 27.7 °F 14.5 °F 19.0 °F 70% 29.95 in 10.0 mi SSW 19.6 mph 25.3 mph N/A   Clear
12:15 PM 28.0 °F 15.7 °F 18.5 °F 67% 29.95 in 10.0 mi SSW 17.3 mph 23.0 mph N/A   Clear
12:35 PM 29.8 °F 18.4 °F 19.4 °F 65% 29.94 in 10.0 mi SSW 16.1 mph 20.7 mph N/A   Clear
12:55 PM 30.6 °F 19.8 °F 19.2 °F 63% 29.93 in 10.0 mi SSW 15.0 mph - N/A   Clear
1:15 PM 31.3 °F 20.3 °F 19.4 °F 61% 29.94 in 10.0 mi SW 16.1 mph - N/A   Clear
1:35 PM 33.1 °F 24.9 °F 20.3 °F 59% 29.93 in 10.0 mi SW 10.4 mph - N/A   Clear
1:55 PM 35.6 °F 28.0 °F 21.2 °F 56% 29.93 in 10.0 mi WSW 10.4 mph - N/A   Clear
2:15 PM 36.1 °F 28.7 °F 22.1 °F 57% 29.93 in 10.0 mi West 10.4 mph - N/A   Mostly Cloudy
2:35 PM 35.6 °F 25.5 °F 24.8 °F 65% 29.95 in 10.0 mi WNW 17.3 mph - N/A   Overcast
2:55 PM 32.2 °F 21.4 °F 26.6 °F 80% 29.96 in 2.5 mi NW 16.1 mph 23.0 mph N/A Snow Light Snow
3:15 PM 31.8 °F 21.8 °F 27.0 °F 82% 29.99 in 5.0 mi NW 13.8 mph 17.3 mph N/A   Haze
3:35 PM 31.6 °F 22.1 °F 27.1 °F 83% 30.00 in 7.0 mi NW 12.7 mph 19.6 mph N/A   Overcast
3:55 PM 31.5 °F 22.3 °F 27.5 °F 85% 30.01 in 3.0 mi WNW 11.5 mph - N/A Snow Light Snow
4:15 PM 30.9 °F 21.2 °F 26.4 °F 83% 30.02 in 5.0 mi NW 12.7 mph 23.0 mph N/A Snow Light Snow
4:35 PM 30.6 °F 19.4 °F 26.2 °F 84% 30.05 in 7.0 mi NW 16.1 mph 23.0 mph N/A   Overcast
4:55 PM 29.8 °F 16.3 °F 25.3 °F 83% 30.06 in 10.0 mi NW 23.0 mph 29.9 mph N/A   Overcast
5:15 PM 28.9 °F 16.5 °F 24.8 °F 84% 30.06 in 10.0 mi NW 18.4 mph - N/A   Overcast
5:35 PM 28.4 °F 15.1 °F 23.9 °F 83% 30.07 in 10.0 mi NW 20.7 mph 26.5 mph N/A   Overcast
5:55 PM 28.4 °F 14.1 °F 23.5 °F 82% 30.09 in 10.0 mi NW 24.2 mph 28.8 mph N/A   Overcast
6:15 PM 28.4 °F 13.3 °F 23.5 °F 82% 30.11 in 10.0 mi WNW 27.6 mph 35.7 mph N/A   Overcast
6:35 PM 26.8 °F 12.3 °F 21.6 °F 81% 30.13 in 10.0 mi NW 23.0 mph 31.1 mph N/A   Mostly Cloudy
6:55 PM 25.7 °F 12.7 °F 20.8 °F 82% 30.14 in 10.0 mi NW 17.3 mph 25.3 mph N/A   Scattered Clouds
7:15 PM 25.2 °F 13.9 °F 20.7 °F 83% 30.15 in 10.0 mi NW 12.7 mph - N/A   Clear
7:35 PM 25.2 °F 14.4 °F 20.8 °F 84% 30.16 in 10.0 mi NNW 11.5 mph 17.3 mph N/A   Mostly Cloudy
7:55 PM 23.9 °F 12.9 °F 20.1 °F 85% 30.16 in 10.0 mi NNW 11.5 mph - N/A   Mostly Cloudy
8:15 PM 22.8 °F 12.9 °F 19.4 °F 87% 30.15 in 10.0 mi NNW 9.2 mph - N/A   Clear
8:35 PM 22.1 °F 11.3 °F 18.9 °F 87% 30.16 in 10.0 mi NNW 10.4 mph - N/A   Clear
8:55 PM 21.2 °F 12.6 °F 18.1 °F 88% 30.16 in 10.0 mi NNW 6.9 mph - N/A   Clear
9:15 PM 19.8 °F 13.2 °F 16.7 °F 88% 30.16 in 10.0 mi North 4.6 mph - N/A   Clear
9:35 PM 19.4 °F 12.8 °F 16.7 °F 89% 30.16 in 10.0 mi NW 4.6 mph - N/A   Clear
9:55 PM 18.5 °F 11.7 °F 15.8 °F 89% 30.16 in 10.0 mi WNW 4.6 mph - N/A   Clear
10:15 PM 20.1 °F 12.3 °F 17.6 °F 90% 30.16 in 10.0 mi WNW 5.8 mph - N/A   Clear
10:35 PM 18.9 °F 12.1 °F 16.0 °F 89% 30.17 in 10.0 mi WSW 4.6 mph - N/A   Clear
10:55 PM 16.9 °F 11.5 °F 14.2 °F 89% 30.17 in 10.0 mi SSW 3.5 mph - N/A   Clear
11:15 PM 16.0 °F 10.4 °F 13.1 °F 88% 30.17 in 10.0 mi South 3.5 mph - N/A   Clear
11:35 PM 15.3 °F 9.6 °F 12.4 °F 88% 30.17 in 10.0 mi SW 3.5 mph - N/A   Clear
11:55 PM 16.0 °F 7.4 °F 12.6 °F 86% 30.17 in 10.0 mi WSW 5.8 mph - N/A   Clear